This is the latest recevied weather packets stored in our database for station/object s59zo-6. If no packets are shown the sender has not sent any weather packets the latest 10 day(s).
| Time | Temp. | Humidity | Pressure | Rain* | Wind** | Luminosity | Snow |
|---|---|---|---|---|---|---|---|
| 1787387703 | 18.89° C | 87% | 1018.8 hPa | 2.03 mm | - | - | - |
| 1787387404 | 18.89° C | 87% | 1018.7 hPa | 2.03 mm | - | - | - |
| 1787387104 | 18.89° C | 87% | 1018.6 hPa | 2.03 mm | - | - | - |
| 1787386804 | 18.89° C | 87% | 1018.5 hPa | 1.78 mm | - | - | - |
| 1787386504 | 18.89° C | 86% | 1018.5 hPa | 2.03 mm | - | - | - |
| 1787386204 | 18.89° C | 86% | 1018.6 hPa | 1.78 mm | - | - | - |
| 1787385904 | 19.44° C | 86% | 1018.6 hPa | 1.27 mm | - | - | - |
| 1787385604 | 19.44° C | 86% | 1018.5 hPa | 1.27 mm | - | - | - |
| 1787385303 | 19.44° C | 86% | 1018.3 hPa | 1.02 mm | - | - | - |
| 1787385004 | 19.44° C | 86% | 1018.3 hPa | 0.51 mm | - | - | - |
| 1787384704 | 19.44° C | 85% | 1018.3 hPa | 0.51 mm | - | - | - |
| 1787384404 | 19.44° C | 85% | 1018.2 hPa | 0.25 mm | - | - | - |
| 1787384105 | 19.44° C | 86% | 1018.1 hPa | 0.25 mm | - | - | - |
| 1787383804 | 19.44° C | 86% | 1018 hPa | 0.25 mm | - | - | - |
| 1787383504 | 20° C | 87% | 1018.1 hPa | 0.25 mm | - | - | - |
| 1787383204 | 20° C | 87% | 1017.8 hPa | 0.25 mm | - | - | - |
| 1787382903 | 20° C | 87% | 1017.6 hPa | 0 mm | - | - | - |
| 1787382604 | 20° C | 88% | 1017.6 hPa | 0 mm | - | - | - |
| 1787382304 | 20° C | 88% | 1017.9 hPa | 0 mm | - | - | - |
| 1787382004 | 20° C | 90% | 1017.7 hPa | 0 mm | - | - | - |
| 1787381703 | 20° C | 91% | 1017.7 hPa | 0 mm | - | - | - |
| 1787381405 | 20° C | 92% | 1017.6 hPa | 0 mm | - | - | - |
| 1787381104 | 20° C | 93% | 1017.6 hPa | 0 mm | - | - | - |
| 1787380804 | 19.44° C | 94% | 1017.6 hPa | 0 mm | - | - | - |
| 1787380504 | 19.44° C | 95% | 1017.6 hPa | 0 mm | - | - | - |
* Rain latest hour (hover to see other rain measurements)
** Current wind speed in m/s (hover to see current wind gust speed)